FW1418 Weather Reports


time (UTC)temp
C
wind
direction
speed
KPH
gust
KPH
rain 1hr
cm
rain 24hr
cm
rain mn
cm
humidity
%
barometer
mb
20260503033055 2 38 4.8 6.4 0.00 0.00 0.00 65 1014.6
20260503031553 2 57 1.6 4.8 0.00 0.00 0.00 65 1014.7
20260503030052 2 57 1.6 4.8 0.00 0.00 0.00 68 1014.8
20260503024600 2 57 1.6 3.2 0.00 0.00 0.00 67 1014.8
20260503023052 2 57 3.2 4.8 0.00 0.00 0.00 66 1015.0
20260503021558 2 57 1.6 4.8 0.00 0.00 0.00 66 1015.0
20260503020056 3 57 1.6 4.8 0.00 0.00 0.00 65 1015.0
20260503014620 3 57 1.6 4.8 0.00 0.00 0.00 64 1014.9
20260503013050 3 57 1.6 4.8 0.00 0.00 0.00 65 1014.9
20260503011601 4 57 3.2 3.2 0.00 0.00 0.00 60 1014.8
20260503010054 4 57 0.0 3.2 0.00 0.00 0.00 59 1014.8
20260503004558 5 57 0.0 1.6 0.00 0.00 0.00 58 1014.9
20260503003046 5 57 1.6 3.2 0.00 0.00 0.00 57 1015.0
20260503001550 6 57 0.0 3.2 0.00 0.00 0.00 52 1015.1
20260503000043 6 57 0.0 3.2 0.00 0.00 0.00 51 1015.3
20260502234545 7 57 1.6 4.8 0.00 0.00 0.00 52 1015.4
20260502233045 7 57 1.6 4.8 0.00 0.00 0.00 51 1015.5
20260502231541 7 57 1.6 4.8 0.00 0.00 0.00 53 1015.6
20260502230039 7 57 1.6 8.0 0.00 0.00 0.00 52 1015.7
20260502224538 7 59 4.8 9.7 0.00 0.00 0.00 49 1015.8
20260502223040 7 59 1.6 6.4 0.00 0.00 0.00 51 1016.0
20260502221537 7 63 4.8 12.9 0.00 0.00 0.00 45 1016.1
20260502220035 8 94 1.6 11.3 0.00 0.00 0.00 44 1016.3
20260502214534 8 98 1.6 9.7 0.00 0.00 0.00 43 1016.3
20260502213033 8 63 4.8 19.3 0.00 0.00 0.00 40 1016.5
20260502211541 9 283 4.8 14.5 0.00 0.00 0.00 37 1016.7
20260502210037 9 35 3.2 12.9 0.00 0.00 0.00 39 1016.7
20260502204528 9 311 3.2 14.5 0.00 0.00 0.00 41 1017.0
20260502203026 8 31 4.8 19.3 0.00 0.00 0.00 39 1017.1
20260502201524 8 299 6.4 16.1 0.00 0.00 0.00 38 1017.3
20260502200025 8 327 8.0 20.9 0.00 0.00 0.00 38 1017.5
20260502194520 8 277 12.9 20.9 0.00 0.00 0.00 38 1017.9
20260502193018 8 234 6.4 24.1 0.00 0.00 0.00 40 1017.9
20260502191517 8 175 9.7 25.7 0.00 0.00 0.00 40 1018.1
20260502190015 7 305 9.7 20.9 0.00 0.00 0.00 40 1018.3
20260502184516 7 230 12.9 25.7 0.00 0.00 0.00 42 1018.4
20260502183031 7 305 4.8 24.1 0.00 0.00 0.00 43 1018.5
20260502181517 7 255 9.7 27.4 0.00 0.00 0.00 41 1018.5
20260502163010 7 350 6.4 22.5 0.00 0.00 0.00 41 1019.0
20260502161502 7 329 4.8 22.5 0.00 0.00 0.00 43 1019.2
20260502151603 5 291 9.7 19.3 0.00 0.00 0.00 53 1019.4
20260502123026 2 202 3.2 11.3 0.00 0.00 0.00 78 1019.9
20260502121525 2 246 3.2 12.9 0.00 0.00 0.00 80 1020.0
20260502114518 1 265 0.0 6.4 0.00 0.00 0.00 85 1019.9
20260502113014 0 243 1.6 4.8 0.00 0.00 0.00 88 1019.9
20260502111511 -1 244 1.6 4.8 0.00 0.00 0.00 89 1019.8
20260502110012 -1 243 1.6 4.8 0.00 0.00 0.00 91 1019.8
20260502104510 -2 238 3.2 6.4 0.00 0.00 0.00 92 1019.7
20260502103011 -2 237 3.2 6.4 0.00 0.00 0.00 92 1019.8
20260502101528 -2 237 3.2 4.8 0.00 0.00 0.00 93 1019.8
20260502091505 -2 237 3.2 4.8 0.00 0.00 0.00 92 1019.5
20260502080110 -2 231 3.2 4.8 0.00 0.00 0.00 93 1019.2
20260502070114 -1 229 3.2 6.4 0.00 0.00 0.00 93 1019.3
20260502064557 -1 229 3.2 4.8 0.00 0.00 0.00 93 1019.4
20260502063057 -1 228 3.2 4.8 0.00 0.00 0.00 93 1019.3
20260502061551 -1 228 1.6 4.8 0.00 0.00 0.00 93 1019.4
20260502060048 -1 228 3.2 4.8 0.00 0.00 0.00 93 1019.4
20260502054548 -1 228 3.2 4.8 0.00 0.00 0.00 92 1019.4
20260502053047 -1 228 1.6 4.8 0.00 0.00 0.00 93 1019.3
20260502051603 -1 228 1.6 4.8 0.00 0.00 0.00 93 1019.4
20260502050043 -1 227 3.2 4.8 0.00 0.00 0.00 92 1019.3
20260502044545 -1 227 3.2 4.8 0.00 0.00 0.00 92 1019.1
20260502043040 -1 227 1.6 4.8 0.00 0.00 0.00 91 1019.1
20260502041540 0 227 1.6 4.8 0.00 0.00 0.00 91 1019.1
20260502040045 0 227 1.6 3.2 0.00 0.00 0.00 90 1019.1
20260502034532 0 227 1.6 3.2 0.00 0.00 0.00 90 1019.1